Temp
-2 -2 -2 -1 -1 -0 1 1 1 0 0 0 0 -1 1 1 2 2 2 2 1 -0 0 0 0 -1 -1 -0 -0 0 -1 -0 1 2 1 1 2 2 2 2 1 1 1 1
-2 -3 -2 -1 -1 -1 1 1 2 0 0 -0 -1 -2 -0 1 1 1 2 2 2 -1 -0 0 -0 -1 -1 -1 -1 -1 0 1 1 2 2 1 1 2 2 2 1 1 1 1
-2 -2 -1 -1 -0 -0 -0 1 1 1 1 -1 -1 -2 -3 0 1 1 1 0 -2 -1 -0 -0 -0 -0 -0 -0 -1 0 1 1 1 2 2 2 1 1 1 2 1 1 1 1
-2 -1 -1 -1 -1 -0 0 0 1 1 1 -1 -0 -2 0 1 1 1 1 1 1 -0 -1 -1 -1 -0 0 1 1 1 1 1 1 1 2 2 1 1 1 1 1 0 1 1
-2 -1 -1 -1 -1 -0 -0 0 0 -0 -0 -1 -2 -3 -1 0 0 1 2 1 1 1 1 1 0 1 1 1 1 1 1 1 1 1 2 2 1 1 0 0 -0 -0 -0 0
-2 -2 -1 -1 -1 -1 -1 -1 -1 -2 -2 -3 -2 -2 -1 -0 1 2 2 1 1 1 1 1 1 1 1 1 1 1 1 1 1 1 1 1 1 1 0 -0 -1 -1 -2 -1
-2 -2 -2 -1 -1 -1 -1 -2 -3 -3 -3 -3 -0 -1 -1 1 1 1 2 2 1 1 1 2 2 2 1 2 1 1 1 1 1 0 0 0 0 -0 -1 -1 -1 -2 -2 -1
-3 -3 -2 -2 -2 -2 -2 -2 -1 -2 -1 -1 -0 -0 -0 1 1 1 1 1 1 1 1 1 2 1 1 1 1 1 1 0 -0 -0 -1 -0 -1 -1 -1 -2 -2 -2 -2 -2
-3 -3 -1 -1 -1 -1 -2 -2 -1 -0 0 -0 -0 0 1 1 1 1 1 1 1 1 1 1 1 1 1 1 0 -0 -1 -1 -1 -1 -2 -2 -2 -2 -2 -2 -3 -3 -3 -3
-4 -3 -1 -1 -2 -2 -1 -2 -2 -2 -2 -2 -0 1 1 1 1 1 1 1 1 1 1 1 1 1 0 0 -1 -2 -2 -2 -2 -2 -2 -3 -3 -3 -3 -4 -4 -4 -4 -4
-4 -4 -3 -4 -3 -2 -2 -2 -2 -1 -1 -2 -1 1 2 2 2 2 1 1 1 1 1 1 1 0 -0 -1 -2 -3 -3 -3 -4 -4 -4 -4 -4 -4 -5 -5 -5 -5 -5 -5
-5 -4 -4 -3 -3 -3 -2 -3 -2 -2 -1 -1 -0 -0 0 1 1 1 1 1 0 0 0 0 -0 -1 -2 -3 -4 -4 -5 -5 -5 -5 -5 -5 -5 -6 -6 -6 -6 -6 -6 -6
-5 -5 -4 -4 -4 -4 -4 -4 -4 -3 -2 -1 -2 -1 0 0 1 1 1 1 0 0 -1 -1 -1 -2 -2 -3 -5 -6 -6 -6 -6 -6 -6 -6 -7 -7 -7 -7 -7 -7 -7 -7
-7 -6 -5 -5 -5 -6 -5 -5 -3 -4 -3 -3 -2 -1 0 1 1 1 1 1 0 -0 -1 -1 -2 -2 -4 -6 -7 -7 -7 -7 -7 -8 -8 -8 -8 -8 -8 -8 -8 -8 -8 -8
-8 -7 -7 -6 -5 -6 -6 -6 -5 -4 -3 -3 -2 -2 -1 -1 -0 0 -0 0 1 0 -1 -2 -2 -4 -5 -6 -7 -8 -8 -8 -9 -9 -9 -9 -9 -9 -9 -9 -9 -9 -9 -9
-8 -8 -8 -7 -7 -7 -6 -6 -5 -5 -4 -4 -4 -3 -2 -2 -2 -2 -1 -1 -1 -0 -0 0 -1 -3 -5 -7 -8 -9 -9 -9 -10 -10 -10 -10 -11 -11 -11 -11 -10 -10 -10 -10
-10 -10 -9 -8 -7 -7 -7 -4 -4 -4 -5 -4 -4 -4 -3 -3 -3 -2 -2 -2 -1 -1 -2 -3 -4 -5 -7 -8 -9 -10 -11 -11 -12 -12 -12 -11 -11 -11 -11 -10 -11 -11 -10 -10
-9 -10 -10 -9 -8 -8 -5 -5 -4 -4 -4 -5 -4 -4 -4 -4 -4 -4 -3 -3 -4 -4 -4 -5 -6 -7 -8 -9 -10 -11 -12 -12 -12 -12 -12 -12 -11 -11 -12 -12 -11 -10 -10 -10
-9 -11 -11 -9 -8 -7 -6 -5 -5 -5 -5 -6 -6 -5 -4 -4 -4 -4 -4 -4 -4 -6 -5 -6 -7 -9 -10 -11 -12 -12 -12 -12 -12 -12 -12 -12 -13 -12 -11 -11 -11 -11 -11 -11
-12 -12 -12 -10 -10 -10 -6 -5 -5 -6 -6 -5 -6 -6 -5 -5 -4 -4 -4 -4 -5 -6 -8 -9 -11 -11 -12 -13 -13 -13 -13 -13 -12 -13 -13 -12 -12 -12 -12 -12 -12 -12 -12 -12
-11 -12 -11 -11 -10 -8 -7 -7 -7 -8 -7 -6 -6 -7 -7 -7 -6 -5 -5 -5 -8 -10 -11 -12 -13 -13 -13 -14 -14 -13 -13 -13 -13 -13 -12 -12 -12 -12 -12 -12 -12 -12 -12 -12
-11 -11 -11 -12 -11 -10 -9 -10 -9 -8 -7 -7 -7 -7 -8 -8 -8 -8 -8 -9 -11 -12 -13 -13 -14 -14 -14 -14 -13 -13 -14 -13 -13 -13 -13 -13 -12 -12 -12 -12 -13 -13 -13 -13
-13 -12 -12 -12 -11 -10 -11 -10 -9 -8 -9 -9 -8 -9 -10 -10 -10 -10 -10 -12 -14 -14 -14 -14 -14 -14 -13 -14 -14 -14 -14 -13 -13 -13 -13 -13 -13 -13 -13 -13 -13 -14 -14 -14
-13 -13 -13 -13 -12 -12 -11 -10 -10 -10 -11 -10 -10 -11 -12 -12 -12 -13 -14 -14 -15 -15 -15 -15 -14 -14 -14 -14 -14 -14 -14 -14 -13 -13 -13 -13 -13 -13 -13 -14 -14 -15 -16 -16
-14 -14 -14 -13 -13 -13 -12 -12 -12 -12 -12 -12 -13 -14 -14 -14 -14 -15 -15 -15 -15 -15 -15 -14 -14 -14 -14 -14 -14 -14 -14 -13 -13 -13 -13 -13 -14 -14 -15 -15 -16 -17 -17 -18
-14 -14 -14 -15 -14 -13 -13 -13 -13 -14 -14 -15 -15 -15 -16 -15 -15 -15 -15 -15 -15 -15 -15 -15 -14 -14 -14 -14 -13 -13 -13 -14 -14 -14 -14 -14 -15 -15 -16 -17 -18 -19 -20 -20
Height
3051 3055 3052 3057 3061 3066 3070 3070 3071 3071 3071 3074 3075 3075 3077 3079 3079 3082 3086 3088 3092 3098 3101 3104 3108 3113 3117 3120 3123 3125 3128 3129 3130 3132 3133 3133 3133 3134 3135 3137 3140 3142 3142 3143
3050 3046 3054 3058 3062 3064 3065 3067 3070 3066 3071 3072 3073 3073 3073 3073 3076 3078 3080 3083 3087 3091 3096 3100 3103 3109 3113 3115 3118 3120 3122 3124 3126 3126 3128 3128 3129 3129 3130 3132 3135 3137 3138 3139
3045 3047 3052 3055 3058 3060 3061 3063 3066 3066 3066 3067 3069 3069 3067 3065 3069 3070 3072 3076 3079 3085 3090 3094 3098 3103 3107 3109 3112 3115 3117 3119 3120 3121 3122 3123 3124 3124 3125 3126 3130 3131 3133 3135
3044 3047 3048 3051 3053 3057 3057 3061 3063 3060 3063 3063 3065 3061 3059 3060 3061 3062 3064 3069 3074 3078 3082 3087 3092 3096 3100 3103 3106 3109 3111 3113 3114 3115 3116 3117 3119 3119 3119 3121 3124 3126 3128 3129
3039 3041 3044 3044 3047 3053 3053 3058 3059 3057 3060 3061 3060 3062 3053 3055 3053 3056 3060 3064 3069 3072 3076 3081 3084 3089 3093 3097 3100 3102 3105 3107 3108 3109 3110 3111 3113 3113 3114 3115 3118 3121 3123 3124
3035 3038 3038 3041 3045 3047 3052 3054 3055 3054 3057 3054 3056 3057 3049 3045 3048 3051 3052 3055 3061 3064 3069 3073 3078 3082 3086 3089 3092 3095 3098 3100 3101 3102 3104 3105 3107 3108 3109 3111 3113 3115 3117 3119
3030 3028 3032 3036 3038 3042 3046 3049 3053 3055 3052 3044 3049 3048 3038 3041 3042 3044 3047 3049 3051 3055 3060 3066 3071 3074 3078 3081 3085 3088 3090 3092 3094 3097 3098 3100 3101 3103 3104 3106 3109 3111 3113 3114
3022 3021 3022 3025 3028 3032 3035 3038 3037 3040 3039 3038 3041 3028 3031 3034 3038 3038 3040 3042 3045 3050 3054 3059 3062 3066 3070 3073 3076 3080 3082 3085 3088 3090 3092 3094 3096 3098 3100 3102 3104 3106 3108 3109
3014 3011 3014 3013 3019 3027 3028 3026 3031 3033 3029 3031 3028 3024 3026 3028 3031 3032 3034 3036 3038 3042 3047 3052 3056 3060 3063 3066 3069 3072 3075 3078 3081 3084 3086 3089 3091 3093 3095 3097 3099 3101 3103 3105
3007 3007 3007 3008 3014 3017 3016 3024 3030 3029 3028 3026 3018 3018 3017 3020 3023 3024 3026 3027 3031 3034 3038 3042 3047 3051 3055 3058 3062 3065 3069 3072 3075 3078 3081 3083 3086 3088 3090 3092 3094 3096 3098 3100
3002 3002 3001 3001 2998 3000 3010 3012 3015 3018 3016 3014 3014 3010 3011 3013 3016 3018 3020 3021 3024 3027 3031 3035 3040 3044 3047 3051 3055 3059 3063 3066 3069 3072 3075 3078 3080 3083 3086 3088 3090 3092 3094 3096
2995 2990 2989 2991 2994 2998 3000 2999 3004 3004 3001 3004 3010 3005 3006 3008 3012 3013 3014 3016 3019 3022 3026 3030 3034 3038 3041 3044 3048 3053 3057 3061 3064 3067 3070 3073 3076 3078 3081 3083 3085 3087 3089 3090
2993 2989 2985 2983 2988 2988 2987 2989 2994 2996 3001 2996 3002 2993 3003 3007 3008 3009 3010 3011 3014 3017 3020 3024 3028 3031 3035 3038 3043 3048 3052 3056 3059 3062 3065 3068 3071 3074 3076 3079 3081 3082 3084 3085
2990 2985 2984 2981 2979 2984 2983 2981 2983 2988 2987 2983 2983 2992 2995 2997 3002 3005 3006 3008 3010 3012 3015 3019 3022 3026 3030 3034 3038 3043 3047 3051 3054 3058 3061 3064 3067 3069 3071 3074 3075 3076 3078 3078
2986 2981 2979 2976 2974 2974 2974 2976 2975 2974 2973 2979 2978 2985 2991 2993 2996 2999 3001 3003 3006 3008 3011 3014 3018 3022 3025 3029 3033 3038 3042 3046 3049 3053 3056 3059 3062 3064 3065 3067 3069 3070 3071 3071
2980 2977 2974 2969 2969 2968 2967 2966 2967 2967 2969 2970 2976 2978 2982 2986 2990 2993 2996 2998 3000 3004 3007 3009 3011 3015 3020 3025 3029 3033 3037 3041 3044 3047 3050 3053 3055 3057 3060 3062 3063 3064 3064 3064
2974 2974 2973 2965 2964 2963 2960 2957 2958 2959 2960 2963 2965 2969 2976 2978 2982 2986 2989 2992 2996 2999 3003 3005 3006 3009 3013 3018 3022 3026 3030 3034 3037 3042 3045 3048 3051 3053 3054 3055 3055 3056 3057 3057
2964 2967 2969 2963 2962 2957 2951 2951 2952 2952 2952 2955 2957 2961 2967 2971 2974 2978 2981 2985 2988 2992 2994 2997 3001 3004 3007 3011 3015 3020 3026 3032 3036 3039 3041 3044 3045 3046 3047 3049 3050 3049 3049 3048
2955 2958 2960 2960 2954 2949 2944 2944 2947 2947 2949 2949 2950 2953 2957 2961 2966 2968 2973 2977 2981 2984 2987 2990 2994 3000 3006 3011 3016 3020 3025 3029 3032 3035 3037 3038 3040 3041 3042 3042 3042 3041 3039 3038
2946 2949 2954 2952 2949 2945 2936 2937 2939 2941 2942 2942 2944 2948 2951 2955 2956 2960 2965 2968 2972 2976 2982 2988 2994 2999 3003 3009 3013 3018 3022 3025 3028 3030 3032 3034 3035 3035 3034 3034 3032 3030 3028 3027
2940 2942 2942 2941 2943 2938 2934 2935 2935 2939 2939 2935 2937 2940 2944 2946 2951 2955 2957 2960 2966 2973 2979 2983 2990 2996 3002 3007 3011 3015 3018 3021 3024 3026 3027 3028 3028 3027 3026 3024 3022 3020 3018 3015
2937 2936 2935 2936 2938 2934 2930 2930 2934 2931 2929 2931 2932 2933 2936 2940 2944 2948 2952 2957 2962 2969 2976 2983 2989 2995 3001 3006 3010 3012 3016 3019 3020 3021 3022 3022 3020 3018 3017 3015 3012 3009 3007 3003
2932 2934 2931 2931 2927 2924 2924 2925 2925 2925 2927 2927 2928 2929 2932 2937 2941 2945 2948 2955 2962 2970 2977 2984 2990 2996 3000 3004 3008 3011 3013 3014 3015 3015 3015 3014 3012 3009 3007 3004 3002 2999 2995 2991
2929 2929 2927 2926 2922 2921 2921 2921 2921 2922 2923 2924 2924 2926 2930 2934 2939 2944 2950 2957 2965 2972 2979 2985 2990 2994 2999 3003 3006 3008 3009 3010 3010 3009 3007 3006 3003 3001 2998 2994 2990 2987 2983 2979
2927 2925 2923 2921 2919 2919 2918 2917 2918 2919 2920 2921 2922 2927 2931 2937 2941 2949 2955 2961 2968 2975 2981 2986 2991 2995 2998 3001 3003 3004 3004 3004 3003 3001 2999 2997 2995 2992 2989 2985 2981 2976 2972 2967
2921 2920 2919 2917 2916 2916 2916 2915 2916 2918 2920 2922 2926 2928 2936 2944 2948 2955 2961 2967 2972 2978 2983 2987 2990 2994 2996 2998 2999 2998 2998 2997 2996 2995 2993 2991 2987 2984 2979 2976 2973 2966 2961 2957
Wind_Speed
30 32 32 30 31 24 18 19 17 12 19 17 26 29 31 31 31 28 33 34 37 40 39 39 36 32 29 30 27 28 24 30 24 22 22 21 22 21 21 19 18 18 18 19
22 36 28 21 21 24 25 24 17 18 15 20 18 25 30 33 32 31 30 33 35 37 40 39 37 36 34 33 31 32 30 27 24 23 24 25 24 23 23 22 22 21 20 20
25 26 28 22 25 26 26 26 21 20 22 19 21 24 29 36 33 34 33 32 35 35 38 38 38 38 37 35 33 32 25 25 24 24 25 26 26 25 25 25 24 23 22 22
28 19 18 30 28 25 27 23 22 23 20 12 16 7 20 27 32 35 35 33 31 35 36 38 39 38 35 30 25 24 24 24 25 25 25 25 26 25 24 25 25 24 24 24
24 29 28 26 32 28 29 21 22 21 20 16 12 9 17 24 29 28 31 29 28 31 34 34 34 31 28 26 25 24 24 25 25 25 25 25 25 24 24 25 25 24 24 24
28 20 23 32 26 29 23 21 12 12 14 9 21 19 14 28 31 26 24 32 31 30 30 31 28 28 28 28 26 26 25 26 26 26 26 25 25 23 24 24 24 24 23 23
23 34 31 23 28 27 26 22 5 5 7 6 14 23 32 13 19 26 29 25 35 36 32 30 30 31 31 31 30 29 28 27 28 27 26 26 25 24 23 22 22 22 22 22
24 20 38 32 36 33 35 35 15 8 8 7 23 14 20 22 32 24 17 23 31 35 37 37 37 37 36 35 34 33 31 29 28 27 26 26 26 25 24 23 23 23 22 20
12 20 21 33 39 35 33 43 40 22 25 6 12 18 17 20 27 31 34 32 27 35 34 38 40 39 39 38 37 34 32 29 28 27 26 26 26 25 25 24 22 21 19 18
17 13 25 22 26 33 40 38 25 29 7 14 10 21 20 25 32 32 36 36 36 31 34 37 39 39 39 38 36 33 31 29 28 27 26 26 25 24 23 21 20 19 19 19
35 23 13 19 35 41 41 31 27 26 29 7 7 12 23 33 20 20 28 35 35 34 37 35 35 38 39 37 35 32 30 28 27 26 25 25 24 23 22 21 21 20 19 19
18 13 24 40 31 34 40 45 40 22 21 38 23 19 3 11 25 24 29 27 31 35 34 35 33 32 33 34 33 31 29 28 27 25 25 24 24 23 22 22 21 21 21 21
9 9 7 12 29 31 39 42 46 47 26 29 17 20 40 21 15 15 21 22 26 26 26 31 29 29 30 30 30 29 28 27 26 26 25 24 24 23 22 22 22 22 22 22
24 19 25 16 11 23 17 38 47 46 24 41 42 22 22 26 37 33 26 11 10 17 20 22 25 26 26 27 28 28 27 27 26 26 25 25 24 23 23 23 22 22 23 23
15 22 22 28 29 27 30 23 29 49 54 26 33 40 32 22 16 15 18 23 26 18 15 15 17 22 25 27 28 28 28 27 26 26 25 25 24 24 23 23 22 23 24 27
21 20 19 25 22 25 23 25 23 26 51 52 38 26 32 34 30 28 24 21 19 19 23 27 28 25 26 27 28 28 28 27 27 27 27 26 25 24 25 26 27 26 24 26
24 23 18 20 20 18 14 21 22 27 29 32 47 54 32 27 31 32 31 30 30 30 30 27 30 30 29 30 31 31 30 30 29 27 26 25 25 24 24 22 21 23 27 29
32 27 17 18 15 7 20 21 21 18 24 30 36 43 44 42 39 35 34 29 28 31 32 32 34 33 32 33 34 32 27 23 22 21 21 21 20 17 18 22 26 27 29 30
30 28 20 12 14 19 20 18 18 16 17 27 31 35 40 40 38 36 34 31 31 32 34 34 34 30 24 23 21 20 19 19 18 17 15 13 15 20 23 25 27 29 30 33
22 25 26 15 6 6 16 20 26 23 22 25 28 34 32 36 38 38 35 32 31 31 28 25 23 22 20 19 19 18 17 16 14 9 11 17 21 23 25 26 28 31 34 36
15 19 31 34 20 11 17 11 7 11 12 15 19 25 27 30 32 31 33 32 28 24 24 25 22 21 20 19 18 17 15 9 8 13 18 20 22 24 26 28 31 35 38 41
17 11 16 22 18 16 23 15 15 16 14 14 15 16 27 28 28 25 23 25 27 27 26 24 22 20 18 17 15 8 5 9 14 16 18 20 23 26 29 32 35 38 41 44
12 21 12 10 12 17 12 17 20 23 19 16 14 13 18 22 22 21 26 28 27 26 24 23 20 20 17 9 7 9 10 11 13 16 19 22 26 29 32 35 38 41 43 46
16 18 21 26 15 17 16 16 18 19 18 14 13 13 16 16 21 27 30 30 29 28 25 23 18 12 11 9 7 7 9 11 14 18 21 24 28 31 35 37 40 42 43 44
19 20 19 22 27 26 16 17 18 16 13 15 18 18 21 25 31 31 33 31 29 25 20 17 15 11 8 6 5 7 10 13 16 20 23 27 30 32 35 37 38 39 40 40
19 20 20 17 17 18 14 13 15 18 23 26 33 38 36 33 34 32 29 26 23 21 17 13 10 7 5 3 5 8 11 15 18 22 25 27 30 32 33 33 32 33 34 33
Wind_Direction
201 192 204 212 215 212 224 234 239 243 223 238 241 238 238 241 244 241 233 230 228 226 225 226 226 228 232 232 233 235 242 256 267 266 270 272 270 263 254 249 246 242 239 241
208 211 211 210 222 222 230 247 251 219 226 233 242 238 246 243 245 248 244 237 233 229 226 228 228 230 231 233 241 250 252 259 260 264 272 275 270 263 255 249 244 242 238 239
211 224 211 222 218 225 230 242 244 239 226 238 246 242 238 251 244 242 241 234 232 229 227 230 231 231 234 240 241 251 257 257 260 263 268 271 267 259 254 248 246 244 240 240
219 222 227 216 226 222 231 233 237 247 232 238 257 257 257 260 255 246 244 241 238 234 231 230 233 237 240 244 246 251 255 257 258 260 263 265 263 256 250 248 245 245 244 243
223 221 221 227 220 221 235 227 237 247 247 242 235 252 266 255 250 253 249 248 240 240 236 236 238 240 240 239 243 248 254 258 259 259 259 258 257 255 248 244 243 245 246 246
229 232 235 234 229 228 228 234 222 227 235 248 236 225 246 239 251 250 245 233 231 232 231 232 231 230 233 238 242 250 255 258 259 258 255 252 251 249 248 245 244 245 247 248
228 230 235 220 222 222 214 205 176 221 205 237 232 228 233 269 250 250 246 240 230 227 227 224 226 230 234 239 244 249 254 256 256 255 251 249 247 245 244 245 246 247 248 251
219 235 228 226 220 212 214 200 191 207 220 234 225 237 232 234 240 255 251 244 241 236 232 228 229 232 236 240 246 249 250 251 251 250 248 246 244 243 243 244 247 251 255 254
216 236 232 237 238 211 214 212 219 252 263 287 241 225 232 231 227 239 246 248 245 238 238 241 241 239 240 244 247 247 246 246 246 245 245 243 242 242 243 245 247 247 244 241
238 254 222 235 222 223 220 217 211 228 237 247 227 248 224 233 232 232 242 244 244 242 237 237 237 240 242 243 243 244 243 242 241 241 240 241 241 240 239 238 237 237 237 238
240 236 227 208 210 213 208 208 214 224 223 224 248 244 237 230 226 232 243 247 245 243 241 242 240 239 240 240 240 240 239 238 236 236 236 236 236 236 235 234 235 237 239 243
272 247 229 233 225 218 217 214 211 215 208 227 245 250 329 227 212 227 241 247 248 247 246 244 241 242 240 238 235 233 233 233 233 232 232 232 233 233 234 235 237 241 247 252
258 257 289 218 231 224 220 218 216 224 231 225 209 239 242 246 218 233 241 241 243 245 246 245 243 241 239 236 231 229 229 229 229 229 230 231 231 232 234 238 243 248 254 259
285 275 259 268 294 306 269 230 219 217 227 230 234 229 224 230 229 245 254 246 236 250 241 240 241 239 232 226 223 224 226 226 226 227 229 229 230 232 237 242 247 253 258 265
287 268 271 271 277 286 281 275 246 226 223 220 239 232 231 241 244 238 241 238 248 251 230 230 237 234 227 222 221 222 222 223 224 225 226 228 231 234 239 244 251 258 264 270
279 275 285 284 289 286 277 274 275 246 235 236 236 238 235 233 237 241 241 236 241 251 249 241 229 222 222 221 220 220 221 222 222 223 224 226 230 235 241 251 260 267 275 282
267 271 283 281 278 281 278 275 266 259 249 247 233 235 234 228 228 234 239 241 241 250 249 240 222 213 212 216 216 216 217 217 218 222 229 239 247 253 256 262 275 280 276 278
263 259 259 269 277 242 257 266 274 267 253 252 242 238 238 238 241 244 240 238 241 243 239 230 223 220 216 215 215 216 220 227 229 232 236 242 248 260 273 273 273 277 281 285
257 250 242 243 237 263 270 256 258 266 264 251 245 242 240 242 241 237 238 240 240 235 228 221 218 218 220 219 217 218 220 223 225 230 239 256 269 269 271 277 281 284 287 290
238 243 225 232 231 226 255 250 247 249 246 251 245 238 243 244 234 241 241 232 230 225 218 215 212 209 205 205 205 207 212 217 222 243 266 267 271 276 280 286 290 293 294 295
251 230 225 234 239 256 259 249 225 189 242 240 242 235 231 227 232 239 231 220 209 204 198 194 190 187 190 194 198 203 208 220 252 261 264 272 280 285 290 294 295 296 296 296
253 227 226 232 239 254 249 245 221 237 244 245 243 235 227 224 224 222 215 203 192 188 180 176 176 179 184 190 192 192 223 244 255 268 278 284 289 293 296 297 298 298 298 298
248 254 273 242 221 237 253 241 239 242 244 247 241 227 217 217 213 203 189 177 167 163 163 164 167 174 178 169 183 215 239 260 274 282 288 293 297 300 301 301 300 300 299 299
273 270 269 273 273 265 263 255 246 246 244 242 219 198 196 197 183 169 159 154 151 151 154 162 165 152 170 190 214 241 262 275 285 293 299 301 302 303 303 303 303 303 303 303
285 289 278 271 268 271 280 251 239 233 215 187 160 150 144 152 144 144 143 143 146 151 147 150 159 165 178 203 237 267 284 296 303 306 307 307 307 306 305 305 306 306 307 309
280 280 282 272 270 265 260 237 204 174 157 145 137 132 133 135 135 137 139 138 141 148 149 148 152 160 179 233 289 308 313 313 314 314 312 310 309 310 311 312 313 315 315 316